www.pogodaiklimat.ru

Погода и климат >> Архив погоды >> Польша >> Хель


ПОГОДА в Хеле

  • Прогноз погоды в Хеле
  • Монитор погоды в Хеле

АРХИВ ПОГОДЫ в Хеле

Время (UTC), дата Ветер
(напр.,м/с)
 
Видим.   Явления Облачность Т
(С)
Тd
(С)
f
(%)
Тe
(С)
Тes
(С)
Комфортность P
(гПа)
Po
(гПа)
Тmin
(С)
Tmax
(С)
R
(мм)
R24
(мм)
S
(см)
13 14.05 С 7-12
{14}
35 км 6/1 600 м
[Cu med, cong Ac trans Ci sp]
+9.9 +2.5 60 +6 +9 1031.5 1031.1
14 14.05 С 5-12
{13}
30 км 6/1 600 м
[Cu med, cong Ac trans Ci sp]
+10.0 +2.6 60 +7 +10 1030.9 1030.5
15 14.05 С 6-11
{14}
30 км 5/1 600 м
[Cu hum Ac trans Ci sp]
+10.0 +2.3 59 +7 +8 1030.5 1030.1
16 14.05 С 6-12
{13}
30 км 8/1 600 м
[Sc diur, vesp Ac und Ci sp]
+9.1 +1.7 60 +6 +6 1030.1 1029.7
17 14.05 С 5-11
{12}
30 км 8/0
[Ac und Ci sp]
+9.1 +1.0 57 +6 +6 1029.8 1029.4
18 14.05 С 5-10
{14}
30 км 9/0
[Ac As Ci sp]
+8.1 +1.5 63 +5 +5 1029.7 1029.2 +7.4 +10.8
19 14.05 С 4
{11}
30 км 9/0
[Ac As]
+7.7 +2.0 67 +5 +5 1029.9 1029.4
20 14.05 С 5
{9}
30 км 9/4 2000 м
[Sc Ac As]
+7.6 +2.3 69 +4 +4 1029.5 1029.0
21 14.05 С 4
{11}
30 км 9/6 1000 м
[Sc Ac As]
+7.6 +2.9 72 +4 +4 1029.0 1028.5
22 14.05 С 5
{9}
25 км 9/9 1000 м
[Sc]
+7.6 +3.1 73 +4 +4 1028.7 1028.2
23 14.05 С 5
{9}
25 км 9/9 1500 м
[Sc]
+7.7 +3.5 75 +4 +4 1028.3 1027.8
00 15.05 С 4-9
{11}
25 км 9/9 2000 м
[Sc]
+7.6 +4.2 79 +4 +4 1027.8 1027.3
01 15.05 СВ 4 25 км 9/9 2000 м
[Sc]
+7.8 +4.9 82 +4 +4 1027.4 1026.9
02 15.05 СВ 4 25 км 9/9 1500 м
[Sc]
+7.9 +5.2 83 +5 +5 1027.1 1026.6
03 15.05 СВ 4 25 км 9/9 1500 м
[Sc]
+7.9 +4.8 81 +5 +5 1026.9 1026.4
04 15.05 СВ 4-9
{9}
25 км 9/9 1500 м
[Sc]
+8.2 +4.0 75 +5 +5 1026.6 1026.2
05 15.05 СВ 4
{9}
25 км 9/9 600 м
[Sc]
+8.1 +4.3 77 +5 +5 1026.4 1026.0
06 15.05 С 4-10
{10}
30 км 9/9 600 м
[Sc]
+8.6 +4.6 76 +6 +6 1026.5 1026.1 +7.5 +8.6
07 15.05 С 3
{10}
30 км 9/9 600 м
[Sc]
+8.5 +4.5 76 +6 +7 1026.6 1026.2
08 15.05 С 6
{10}
30 км 9/9 600 м
[Sc]
+9.3 +5.1 75 +6 +6 1026.3 1025.9
09 15.05 С 6
{11}
30 км 9/9 1000 м
[Sc]
+9.7 +5.1 73 +6 +7 1026.2 1025.8
10 15.05 С 6
{12}
30 км 9/9 1000 м
[Sc]
+10.2 +5.2 71 +7 +8 1025.7 1025.3
11 15.05 С 7
{13}
30 км 8/8 1000 м
[Sc]
+10.2 +5.4 72 +7 +7 1025.5 1025.1
12 15.05 С 7-13
{14}
30 км 6/4 1000 м
[Sc Ac trans Ci sp]
+11.2 +5.7 69 +8 +10 1025.1 1024.7
13 15.05 С 5-11
{14}
30 км 9/3 1000 м
[Sc Ac trans Cs]
+10.2 +5.2 71 +7 +10 1025.0 1024.6
14 15.05 С 5-10
{13}
30 км 9/1 1500 м
[Sc Ac As Cs]
+10.1 +5.1 71 +7 +10 1024.5 1024.1
15 15.05 С 5-10
{14}
25 км слаб. дождь 10/3 1500 м
[Sc Ac As]
+9.0 +5.2 77 +6 +6 1024.0 1023.6
16 15.05 С 5
{11}
20 км слаб. дождь 10/4 1000 м
[Sc Ac As]
+8.8 +5.9 82 +5 +6 1023.3 1022.9
17 15.05 С 4
{9}
9000 м слаб. дождь 10/8 1000 м
[Sc As op]
+8.3 +6.3 87 +5 +5 1022.9 1022.5
18 15.05 С 4
{14}
18 км слаб. дождь 10/6 1000 м
[Sc As op]
+8.1 +6.6 90 +5 +5 1022.9 1022.5 +8.0 +11.6 0.7
19 15.05 С 4
{10}
14 км слаб. дождь 10/6 1000 м
[Sc As op]
+8.0 +6.6 91 +5 +5 1022.8 1022.4
20 15.05 С 5
{10}
12 км слаб. дождь 10/6 1000 м
[Sc As op]
+8.1 +6.9 92 +4 +4 1022.4 1022.0
21 15.05 С 5
{10}
12 км слаб. дождь 10/6 1000 м
[Sc As op]
+8.2 +7.3 94 +4 +4 1022.2 1021.8
22 15.05 СВ 5 18 км слаб. дождь 10/6 1000 м
[Sc As op]
+8.4 +7.3 93 +5 +5 1021.6 1021.2
23 15.05 СВ 5 16 км слаб. дождь 10/6 1000 м
[Sc As op]
+8.5 +7.3 92 +5 +5 1021.2 1020.8
00 16.05 СВ 5
{10}
20 км слаб. дождь 10/6 1000 м
[Sc As op]
+8.5 +6.6 88 +5 +5 1020.2 1019.8 3
01 16.05 СВ 5
{11}
20 км в посл. час дождь 8/8 1500 м
[Sc]
+8.7 +6.5 86 +5 +5 1019.9 1019.5
02 16.05 СВ 6
{10}
20 км 8/8 1500 м
[Sc]
+8.8 +6.2 84 +5 +5 1019.1 1018.7
03 16.05 СВ 5-10
{11}
20 км в посл. час дождь 9/9 1500 м
[Sc]
+9.1 +6.4 83 +6 +6 1019.0 1018.6
04 16.05 СВ 5-10
{11}
20 км 8/6 2000 м
[Sc Ac trans]
+9.3 +6.6 83 +6 +6 1018.7 1018.3
05 16.05 СВ 6-11
{11}
20 км 8/5 2000 м
[Sc Ac cast]
+9.7 +6.6 81 +6 +6 1018.5 1018.1
06 16.05 СВ 5-10
{11}
20 км {дождь} 8/5 2000 м
[Sc Ac trans]
+10.4 +7.1 80 +7 +8 1018.6 1018.2 +8.0 +10.4 3
07 16.05 СВ 6-11
{11}
25 км 6/5 2000 м
[Sc Ac trans]
+11.5 +7.4 76 +9 +10 1018.7 1018.3
08 16.05 СВ 6-11
{11}
25 км 5/4 2000 м
[Sc Ac trans]
+12.8 +7.9 72 +10 +13 1018.6 1018.2
09 16.05 СВ 6-12
{14}
25 км 8/0
[Ac As]
+12.1 +7.6 74 +9 +12 1018.5 1018.1
10 16.05 СВ 6-12
{12}
25 км 8/1 1500 м
[Sc Ac trans]
+12.8 +7.9 72 +10 +13 1018.4 1018.0
11 16.05 СВ 6-11
{12}
25 км 9/3 1500 м
[Sc Ac As]
+12.7 +7.6 71 +10 +12 1018.2 1017.8
12 16.05 СВ 5-10
{14}
12 км слаб. ливневой дождь 9/8 600 м
[Cb calv Ac As]
+10.9 +8.5 85 +8 +9 1018.0 1017.6 0.2
13 16.05 СВ 6
{12}
20 км в посл. час ливневой дождь 9/9 600 м
[Cb calv]
+10.4 +8.2 86 +7 +8 1018.0 1017.6
14 16.05 СВ 4
{10}
12 км слаб. ливневой дождь 9/9 600 м
[Cb calv]
+10.1 +9.0 93 +7 +8 1017.8 1017.4
15 16.05 СВ 4
{12}
20 км в посл. час ливневой дождь 9/9 600 м
[Cu med, cong]
+10.4 +9.0 91 +8 +8 1017.4 1017.0
16 16.05 СВ 4 12 км слаб. ливневой дождь 9/9 600 м
[Cb calv]
+10.4 +9.3 93 +8 +8 1017.0 1016.6
17 16.05 СВ 5 2800 м в посл. час ливневой дождь 9/9 600 м
[Cb calv]
+10.5 +9.7 95 +7 +7 1016.8 1016.4
18 16.05 В 5
{12}
9000 м в посл. час ливневой дождь 9/9 300 м
[Cb calv]
+11.4 +10.8 96 +9 +9 1017.0 1016.6 +10.0 +13.4 2
19 16.05 В 5 8000 м дымка 9/9 300 м
[Cu med, cong]
+11.1 +10.3 95 +8 +8 1017.1 1016.7
20 16.05 В 5 9000 м в посл. час ливневой дождь 9/9 480 м
[Cb calv]
+11.0 +10.1 94 +8 +8 1017.0 1016.6
21 16.05 В 5 5000 м в посл. час ливневой дождь 9/4 1000 м
[Cb calv Ac As]
+10.8 +10.0 95 +8 +8 1016.8 1016.4
22 16.05 В 4 5000 м дымка 10/10 1000 м
[Sc]
+10.8 +10.0 95 +8 +8 1016.8 1016.4
23 16.05 В 5 8000 м дымка 10/5 1500 м
[Sc Ac As]
+10.6 +9.8 95 +8 +8 1016.4 1016.0
00 17.05 В 5 2200 м ливневой дождь 9/9 1000 м
[Cb calv]
+10.9 +10.3 96 +8 +8 1015.9 1015.5 2
01 17.05 В 5
{10}
1800 м сильн. дождь {ливн. осадки} 10/5 30 м
[Frnb As op]
+10.8 +10.3 97 +8 +8 1015.4 1015.0
02 17.05 В 5-10
{10}
2400 м дождь 10/8 60 м
[Frnb As op]
+10.8 +10.3 97 +8 +8 1014.9 1014.5
03 17.05 В 5
{10}
2300 м слаб. дождь 10/8 60 м
[Frnb As op]
+10.9 +10.4 97 +8 +8 1014.5 1014.1
04 17.05 СВ 5 2000 м слаб. дождь 10/8 60 м
[Frnb As op]
+10.8 +10.3 97 +8 +8 1014.4 1014.0
05 17.05 СВ 5 1800 м дождь 10/8 30 м
[Frnb As op]
+10.8 +10.3 97 +8 +8 1014.1 1013.7
06 17.05 В 4
{10}
2500 м слаб. дождь 10/6 30 м
[Frnb As op]
+10.7 +10.2 97 +8 +8 1013.9 1013.5 +10.5 +11.4 11
07 17.05 В 4 7000 м в посл. час дождь 10/10 400 м
[Sc]
+11.0 +10.4 96 +8 +8 1013.6 1013.2
08 17.05 В 5 10 км 10/10 420 м
[Sc]
+11.0 +10.4 96 +8 +8 1013.6 1013.2
09 17.05 В 5 10 км в посл. час дождь 10/10 600 м
[Sc]
+11.3 +10.7 96 +8 +8 1013.4 1013.0
10 17.05 В 5 12 км 10/10 600 м
[Cu Sc]
+11.4 +10.6 95 +9 +9 1013.2 1012.8
11 17.05 В 5
{10}
18 км 9/6 600 м
[Cu med, cong Ac trans]
+13.1 +11.5 90 +11 +13 1013.2 1012.8
12 17.05 В 6
{10}
20 км {ливн. осадки} 6/5 1000 м
[Cu med, cong Ac trans]
+15.0 +12.3 84 +13 +16 1013.2 1012.8 0.2
13 17.05 В 5-10
{10}
20 км 8/6 1000 м
[Cu med, cong Ac trans]
+13.8 +11.5 86 +12 +14 1012.7 1012.3
14 17.05 В 5
{10}
20 км 8/4 1000 м
[Cu med, cong Ac und]
+13.9 +11.6 86 +12 +14 1012.4 1012.0
15 17.05 В 5
{10}
20 км 9/8 1500 м
[Cu med, cong Ac trans]
+13.9 +11.8 87 +12 +12 1012.7 1012.3
16 17.05 ЮВ 4 18 км гроза без осадков 9/9 300 м
[Cb cap]
+13.0 +11.4 90 +11 +11 1013.4 1013.0
17 17.05 В 2 10 км в посл. час гроза {ливн. осадки} 9/8 300 м
[Cb cap Ac trans]
+13.0 +12.2 95 +12 +12 1013.2 1012.8
18 17.05 В 3
{10}
18 км {гроза, ливн. осадки} 6/4 1000 м
[Cu med, cong Ac trans Ci sp]
+12.8 +11.9 94 +11 +11 1013.0 1012.6 +10.7 +15.4 2
19 17.05 В 2 6000 м дымка 5/3 1000 м
[Cu med, cong Ac trans Ci sp]
+11.7 +10.9 95 +10 +10 1013.1 1012.7
20 17.05 В 3 10 км 4/1 1000 м
[Sc Ci sp]
+11.3 +10.7 96 +9 +9 1013.5 1013.1
21 17.05 В 3 10 км 4/1 1000 м
[Sc Ci sp]
+11.0 +10.4 96 +9 +9 1013.6 1013.2
22 17.05 ЮВ 2 10 км 3/0
[Ci sp]
+11.2 +10.7 97 +10 +10 1013.8 1013.4
23 17.05 ЮВ 2 6000 м дымка 3/0
[Ci sp]
+10.9 +10.4 97 +9 +9 1013.7 1013.3
00 18.05 Ю 3 3500 м дымка 5/0
[Ci sp]
+11.1 +10.6 97 +9 +9 1013.7 1013.3
01 18.05 Ю 2 2000 м дымка 5/0
[Ci sp]
+10.5 +10.0 97 +9 +9 1013.7 1013.3
02 18.05 ЮВ 1 300 м туман 9/9 30 м
[St]
+9.9 +9.4 97 +9 +9 1013.8 1013.4
03 18.05 ЮВ 1 300 м туман 9/9 30 м
[St]
+10.0 +9.5 97 +9 +9 1014.0 1013.6
04 18.05 СВ 1 300 м туман 10/10 30 м
[St]
+10.8 +10.5 98 +10 +10 1013.7 1013.3
05 18.05 СВ 2 100 м туман 10/10 30 м
[St]
+12.7 +12.4 98 +12 +12 1014.4 1014.0
06 18.05 штиль 0 100 м туман 10/10 30 м
[St]
+12.3 +12.0 98 +12 +12 1014.0 1013.6 +9.9 +12.8
07 18.05 СВ 1 200 м туман 10/10 30 м
[St]
+13.9 +13.6 98 +14 +14 1013.6 1013.2
08 18.05 СВ 2 200 м туман ?/? +13.0 +12.4 96 +12 +12 1013.3 1012.9
09 18.05 С 1 800 м туман 10/10 30 м
[St]
+13.5 +12.6 94 +14 +14 1013.2 1012.8
10 18.05 СВ 3 600 м туман 10/10 30 м
[St]
+12.0 +11.1 94 +10 +10 1013.1 1012.7
11 18.05 СВ 4 1100 м гроза, ливневой дождь {туман} 10/10 30 м
[Cb cap]
+11.5 +10.9 96 +9 +9 1013.0 1012.6
12 18.05 СВ 2 1200 м в посл. час гроза {ливн. осадки, туман} 10/10 60 м
[St]
+12.5 +12.0 97 +11 +11 1012.2 1011.8 6
13 18.05 СВ 1 2000 м дымка 10/10 60 м
[St]
+12.8 +12.3 97 +13 +13 1012.4 1012.0
14 18.05 В 2 1800 м дымка 10/10 50 м
[St]
+14.6 +14.1 97 +14 +14 1011.7 1011.3
15 18.05 СВ 2 6000 м дымка 8/5 180 м
[St Ac trans Ci sp]
+16.8 +15.1 90 +17 +19 1011.3 1010.9
16 18.05 В 2 3200 м дымка 10/10 60 м
[St]
+14.7 +13.9 95 +14 +14 1011.7 1011.3
17 18.05 В 1 800 м туман 8/6 60 м
[St Ac trans Ci sp]
+14.6 +13.1 91 +15 +15 1011.3 1010.9
18 18.05 З 1 600 м туман 8/6 60 м
[St Ac trans Ci sp]
+12.9 +11.8 93 +13 +13 1011.2 1010.8 +11.5 +17.0 6
19 18.05 С 1 600 м туман 8/6 30 м
[Frnb Ac trans]
+12.2 +11.4 95 +12 +12 1011.4 1011.0
20 18.05 СВ 2 800 м туман 5/3 30 м
[St Ac trans]
+11.8 +11.2 96 +11 +11 1011.1 1010.7
21 18.05 СВ 2 800 м туман 5/4 30 м
[St Ac trans]
+11.2 +10.6 96 +10 +10 1011.1 1010.7
22 18.05 З 2 400 м туман 4/3 <50 м
[St Ac trans]
+10.4 +9.9 97 +9 +9 1011.0 1010.6
23 18.05 СЗ 1 900 м туман 4/3 50 м
[St Ac trans]
+10.1 +9.6 97 +9 +9 1010.7 1010.3
00 19.05 С 3 1500 м в посл. час туман 4/0
[Ci sp]
+9.9 +9.4 97 +7 +7 1010.6 1010.2
01 19.05 С 2 1500 м дымка 4/0
[Ci sp]
+10.0 +9.5 97 +8 +8 1010.4 1010.0
02 19.05 СВ 2 1100 м дымка 6/0
[Ci sp]
+10.8 +10.5 98 +9 +9 1010.6 1010.2
03 19.05 В 3 2000 м дымка 9/9 1000 м
[Sc]
+11.5 +11.2 98 +10 +10 1010.6 1010.2
04 19.05 В 3 3300 м дымка 9/9 1000 м
[Sc]
+12.2 +11.9 98 +10 +11 1010.6 1010.2
05 19.05 В 3 6000 м дымка 8/5 2000 м
[Sc Ci sp]
+12.8 +12.5 98 +11 +12 1010.5 1010.1
06 19.05 В 4 8000 м дымка 8/4 1500 м
[Sc Cs]
+13.5 +13.0 97 +12 +13 1010.4 1010.0 +9.7 +13.5
07 19.05 В 3 15 км 9/0
[Ac und Cs]
+14.9 +13.3 90 +14 +18 1010.2 1009.8
08 19.05 В 3 15 км 9/0
[Ac As Ci sp]
+14.6 +13.3 92 +14 +17 1010.5 1010.1
09 19.05 В 4 10 км слаб. дождь 9/4 1000 м
[Sc Ac As]
+14.4 +13.3 93 +13 +15 1010.6 1010.2
10 19.05 В 3 14 км в посл. час дождь 9/3 1000 м
[Sc Ac As]
+15.6 +14.0 90 +15 +18 1010.4 1010.0
11 19.05 В 3 16 км 9/3 1500 м
[Sc Ac As]
+17.1 +14.7 86 +17 +21 1010.4 1010.0
12 19.05 В 3 17 км {дождь} 9/0
[Ac trans Ci sp]
+17.3 +15.1 87 +17 +23 1010.2 1009.8 0.0
13 19.05 СВ 3 18 км 9/3 1000 м
[Cu med, cong Ac As]
+16.9 +14.4 85 +17 +20 1009.9 1009.5
14 19.05 СВ 3 18 км 9/4 1000 м
[Cu med, cong Ac As]
+18.3 +15.5 84 +19 +21 1009.2 1008.8
15 19.05 СВ 4 18 км 9/6 1500 м
[Cb calv Ac As]
+16.2 +13.5 84 +15 +16 1008.9 1008.5
16 19.05 В 4 10 км в посл. час ливневой дождь 9/6 1000 м
[Cb calv Ac As]
+15.9 +14.9 94 +15 +15 1008.7 1008.3
17 19.05 В 4 9000 м слаб. ливневой дождь 9/8 1000 м
[Cb calv Ac As]
+15.7 +14.7 94 +15 +15 1008.7 1008.3
18 19.05 В 3 8000 м слаб. ливневой дождь 9/6 1000 м
[Cb calv Ac As]
+14.9 +13.9 94 +14 +14 1008.6 1008.2 +13.5 +18.3 0.5
19 19.05 В 3 16 км в посл. час ливневой дождь 6/4 1000 м
[Cu med, cong Ac trans]
+14.2 +13.2 94 +13 +13 1008.5 1008.1
20 19.05 В 3 12 км 5/3 1000 м
[Sc Ac trans]
+13.3 +12.5 95 +12 +12 1008.6 1008.2
21 19.05 В 4 7000 м дымка {ливн. осадки} 5/4 1000 м
[Sc Ac trans]
+13.3 +12.7 96 +11 +11 1008.7 1008.3
22 19.05 В 4 8000 м дымка 4/3 1000 м
[Sc Ac trans]
+13.1 +12.5 96 +11 +11 1008.6 1008.2
23 19.05 В 3 7000 м дымка 3/1 1000 м
[Sc Ac trans]
+12.9 +12.3 96 +11 +11 1008.5 1008.1
00 20.05 В 4 6000 м дымка {ливн. осадки} 3/0
[Ac trans Ci fib]
+12.9 +12.4 97 +11 +11 1008.4 1008.0
01 20.05 В 3 5000 м дымка 3/0
[Ac trans Ci fib]
+12.7 +12.2 97 +11 +11 1008.2 1007.8
02 20.05 В 3 4000 м дымка 1/0
[Ci fib]
+12.1 +11.6 97 +10 +10 1008.2 1007.8
03 20.05 В 3 3500 м дымка 1/0
[Ac trans]
+11.8 +11.3 97 +10 +10 1008.2 1007.8
04 20.05 В 3 6000 м дымка 1/0
[Ac trans]
+12.7 +12.4 98 +11 +12 1008.0 1007.6
05 20.05 В 3 15 км ясно +13.4 +12.9 97 +12 +14 1007.8 1007.4
06 20.05 В 3 18 км 1/0
[Ci sp]
+14.2 +13.2 94 +13 +17 1007.8 1007.4 +11.8 +14.9
07 20.05 В 3 20 км 1/0
[Ci sp]
+15.9 +13.6 86 +15 +22 1007.6 1007.2
08 20.05 В 5 20 км 1/0
[Ci fib]
+17.1 +14.2 83 +16 +22 1007.5 1007.1
09 20.05 В 5 20 км 4/0
[Ci sp]
+18.2 +14.5 79 +18 +25 1007.2 1006.8
10 20.05 В 5
{10}
20 км 4/0
[Ci sp]
+20.2 +15.6 75 +23 +30 комфорт 1006.9 1006.5
11 20.05 СВ 4 20 км 3/0
[Ci sp]
+20.3 +14.9 71 +23 +33 комфорт 1006.5 1006.1
12 20.05 СВ 5
{10}
20 км 5/0
[Cs]
+22.0 +15.6 67 +26 +33 душно 1006.3 1005.9
13 20.05 СВ 4 20 км 4/0
[Ac trans Ci sp]
+20.9 +14.8 68 +24 +31 комфорт 1005.4 1005.0
14 20.05 СВ 4 20 км 5/3 1000 м
[Cu med, cong Ac trans Ci sp]
+19.9 +14.7 72 +22 +26 комфорт 1004.8 1004.4
15 20.05 В 5 20 км 6/3 1000 м
[Cu med, cong Ac trans Ci sp]
+20.2 +14.3 69 +22 +24 комфорт 1004.2 1003.8
16 20.05 В 4 20 км 9/9 1500 м
[Cu med, cong]
+18.4 +14.1 76 +19 +19 1004.7 1004.3
17 20.05 В 4 20 км гроза без осадков 9/8 1500 м
[Cb cap Ac trans]
+17.5 +13.8 79 +17 +17 1004.3 1003.9
18 20.05 Ю 2 20 км гроза без осадков 9/8 1500 м
[Cb cap Ac trans]
+17.2 +14.3 83 +18 +18 1006.0 1005.6 +14.2 +22.0
19 20.05 ЮВ 5 20 км в посл. час гроза {ливн. осадки} 9/6 1500 м
[Cb calv Ac As]
+17.2 +14.5 84 +17 +17 1006.1 1005.7
20 20.05 В 5 20 км в посл. час гроза 9/6 1000 м
[Cb calv Ac As]
+16.5 +13.6 83 +16 +16 1005.3 1004.9
21 20.05 В 4 25 км {гроза, ливн. осадки} 6/4 1000 м
[Cu med, cong Ac trans Ci sp]
+15.5 +13.7 89 +14 +14 1005.2 1004.8
22 20.05 В 5 25 км 6/3 1000 м
[Sc Ac trans Ci sp]
+14.8 +13.3 91 +13 +13 1005.1 1004.7
23 20.05 В 5 25 км 9/6 2000 м
[Sc Ac und]
+14.6 +13.0 90 +13 +13 1005.4 1005.0
00 21.05 ЮВ 2 25 км {гроза, ливн. осадки} 9/4 2000 м
[Sc Ac und]
+14.4 +12.9 91 +14 +14 1005.1 1004.7 0.0
01 21.05 ЮВ 4 18 км 9/4 2000 м
[Sc Ac und]
+14.3 +13.2 93 +13 +13 1004.9 1004.5
02 21.05 В 3 15 км 9/4 2000 м
[Sc Ac trans]
+13.8 +12.9 94 +13 +13 1004.9 1004.5
03 21.05 В 3 15 км 9/9 420 м
[Sc]
+13.7 +12.9 95 +12 +12 1005.6 1005.2
04 21.05 ЮВ 4 15 км 9/9 450 м
[Sc]
+14.2 +13.4 95 +13 +13 1006.1 1005.7
05 21.05 ЮВ 3 18 км 8/8 330 м
[Sc]
+14.7 +13.4 92 +14 +14 1006.0 1005.6
06 21.05 ЮВ 4 18 км 9/9 240 м
[St]
+14.7 +13.4 92 +13 +14 1006.4 1006.0 +13.4 +17.3 0.0
07 21.05 ЮВ 4 18 км 8/8 270 м
[St]
+16.0 +14.0 88 +15 +16 1006.7 1006.3
08 21.05 Ю 3 18 км 6/0
[Ac und Ci sp]
+18.5 +14.6 78 +19 +26 1006.7 1006.3
09 21.05 В 3 18 км 8/0
[Ac trans Ci sp]
+17.7 +14.2 80 +18 +25 1007.0 1006.6
10 21.05 В 3 25 км 8/3 600 м
[Cu med, cong Ci sp]
+19.4 +14.9 75 +21 +29 комфорт 1006.8 1006.4
11 21.05 В 4 20 км 6/3 600 м
[Cu med, cong Ci sp]
+20.8 +14.9 69 +24 +31 комфорт 1006.8 1006.4
12 21.05 В 3 18 км 6/3 600 м
[Cu med, cong Ci sp]
+21.7 +15.3 67 +25 +33 комфорт 1006.7 1006.3
13 21.05 СВ 3 18 км 6/3 600 м
[Cu med, cong Ci sp]
+20.4 +14.7 70 +23 +30 комфорт 1006.5 1006.1
14 21.05 СВ 3 18 км 6/3 600 м
[Cu med, cong Ci sp]
+21.3 +15.4 69 +24 +29 комфорт 1006.2 1005.8

 

Местоположение метеостанции Хель (Польша): широта 54.60 долгота 18.82 высота над уровнем моря 3 м.

В архиве по умолчанию представлена погода в Хеле за последнюю неделю. Архивные данные за месяц целиком и за предыдущие месяцы, начиная с января 2011 года, Вы можете получить, выбрав интересующий диапазон дат из раскрывающегося списка и нажав кнопку "Ввод!".


*Определитесь, кто Вы:
робот инопланетянин человек

Внимание! Время в таблицах - всемирное. Для получения местного времени необходимо прибавить поправку, которая равна 1 ч.

Смотрите также архив погоды в соседних городах и на ближайших метеорологических станциях:

Погода на Авиабазе Гдыня-Оксывье (Польша) (20 км)
Погода в Эльблонге (Польша) (62 км)
Погода в Балтийске (Калининградская область, Россия) (68 км)
Погода в Лемборке (Польша) (69 км)
Погода в Лебунии (Польша) (71 км)
Погода в Мамоново (Калининградская область, Россия) (73 км)
Погода в Лебе (Польша) (85 км)
Погода в Пионерском (Калининградская область, Россия) (97 км)
Погода в Рыбном Порту (Калининградская область, Россия) (105 км)
Погода в Калининграде (Калининградская область, Россия) (116 км)

Пояснения к столбцам:

Ветер - указаны скорость ветра в м/с - средняя за 10 мин, порывы в срок и между сроками (в фигурных скобках) и направление, откуда дует ветер: С - северный, СВ - северо-восточный, В - восточный, ЮВ - юго-восточный, Ю - южный, ЮЗ - юго-западный, З - западный, СЗ - северо-западный.
Видимость - горизонтальная дальность видимости в метрах или километрах. При видимости от 1 до 10 км при отсутствии осадков обычно наблюдается дымка, при ухудшении видимости до 1 км и менее - туман. В сухую погоду видимость может ухудшаться дымом, пылью или мглою.
Явления - указаны атмосферные явления, наблюдавшиеся в срок или в последний час перед сроком; фигурными скобками обозначены явления, наблюдавшиеся между сроками (за 1-3 часа до срока); квадратными скобками обозначены град или гололедные отложения с указанием их диаметра в мм.
Облачность - указаны через наклонную черту общая и нижняя облачность в баллах и высота нижней границы облаков в метрах; квадратными скобками обозначены формы облаков: Ci - перистые, Cs - перисто-слоистые, Cc - перисто-кучевые, Ac - высококучевые, As - высокослоистые, Sc - слоисто-кучевые, Ns - слоисто-дождевые, Cu - кучевые, Cb - кучево-дождевые. Подробнее классификацию облаков см. в Атласе облаков (PDF).
T - Температура воздуха - температура, измеренная на высоте 2 м над землей.
Td - Температура точки росы - температура, при понижении до которой содержащийся в воздухе водяной пар достигнет насыщения.
f - Относительная влажность воздуха - влажноcть воздуха, измеренная на высоте 2 м над землей.
Te - Эффективная температура - температура, которую ощущает одетый по сезону человек в тени. Характеристика душности погоды. При расчете учитывается влияние влажности воздуха и скорости ветра на теплоощущения человека.
Tes - Эффективная температура на солнце - температура, которую ощущает человек, с поправкой на солнечный нагрев. Характеристика знойности погоды. Зависит от высоты солнца над горизонтом, облачности и скорости ветра. Ночью, в пасмурную погоду, а также при ветре 12 м/с и более поправка равна нулю.
P - Атмосферное давление - приведенное к уровню моря атмосферное давление.
Po - Атмосферное давление - измеренное на уровне метеостанции атмосферное давление.
Tmin - Минимальная температура - минимум температуры воздуха на высоте 2 м над землей.
Tmax - Максимальная температура - максимум температуры воздуха на высоте 2 м над землей.
R - Количество осадков - Количество выпавших осадков за период времени, мм. При наведении курсора мыши на число - период времени, за который выпало указанное количество осадков.
R24 - Количество осадков - Количество выпавших осадков за 24 часа, мм.
S - Снежный покров - Высота снежного покрова, см. При наведении курсора мыши на число - состояние снежного покрова и степень покрытия местности в баллах.